QPF
0.07 0.06 0.07 0.07 0.05 0.03 0.04 0.05 0.04 0.04 0.05 0.04 0.02 0.02 0.02 0.01 0.01 0.01 0.03 0.03 0.04 0.03 0.03 0.04 0.06 0.06 0.03 0.02 0.02 0.02 0.02 0.01 0.01 0.01 0.01 0.02 0.01 0.01 0.01 0.01 0.01 0.01 0.01
0.06 0.08 0.08 0.08 0.06 0.04 0.04 0.06 0.05 0.05 0.06 0.05 0.03 0.02 0.02 0.02 0.02 0.03 0.04 0.04 0.03 0.03 0.04 0.06 0.08 0.09 0.04 0.02 0.03 0.02 0.01 0.02 0.02 0.01 0.02 0.01 0.01 0.01 0.01 0.02 0.01 0.01 0.01
0.07 0.08 0.07 0.07 0.06 0.06 0.07 0.08 0.07 0.07 0.05 0.04 0.03 0.03 0.04 0.03 0.02 0.01 0.02 0.03 0.03 0.03 0.04 0.05 0.09 0.10 0.07 0.05 0.05 0.03 0.02 0.02 0.02 0.02 0.02 0.02 0.02 0.01 0.01 0.01 0.01 0.01 0.02
0.07 0.08 0.07 0.07 0.07 0.06 0.07 0.10 0.11 0.10 0.07 0.05 0.04 0.03 0.03 0.04 0.03 0.01 0.01 0.01 0.02 0.03 0.03 0.03 0.04 0.06 0.08 0.08 0.08 0.06 0.06 0.05 0.04 0.03 0.03 0.03 0.03 0.02 0.02 0.02 0.02 0.02 0.02
0.04 0.06 0.07 0.08 0.07 0.07 0.07 0.07 0.09 0.11 0.09 0.08 0.05 0.05 0.05 0.06 0.06 0.03 0.02 0.01 0.02 0.02 0.03 0.03 0.02 0.03 0.05 0.06 0.08 0.08 0.10 0.08 0.06 0.05 0.05 0.04 0.04 0.04 0.03 0.03 0.03 0.03 0.03
0.03 0.06 0.07 0.09 0.08 0.09 0.10 0.11 0.11 0.11 0.09 0.09 0.04 0.04 0.05 0.04 0.04 0.04 0.03 0.03 0.03 0.02 0.03 0.04 0.05 0.04 0.03 0.05 0.07 0.09 0.09 0.08 0.07 0.07 0.05 0.05 0.05 0.04 0.04 0.04 0.02 0.04 0.04
0.04 0.07 0.06 0.08 0.08 0.09 0.09 0.10 0.10 0.09 0.08 0.08 0.08 0.07 0.05 0.03 0.03 0.03 0.04 0.05 0.05 0.03 0.03 0.04 0.04 0.06 0.05 0.03 0.05 0.07 0.09 0.09 0.09 0.07 0.06 0.05 0.05 0.04 0.04 0.03 0.03 0.05 0.07
0.06 0.07 0.08 0.07 0.08 0.09 0.10 0.10 0.10 0.10 0.08 0.08 0.10 0.10 0.07 0.05 0.03 0.02 0.02 0.03 0.03 0.02 0.02 0.02 0.03 0.05 0.05 0.06 0.04 0.04 0.06 0.10 0.11 0.10 0.08 0.07 0.05 0.04 0.04 0.04 0.04 0.05 0.05
0.05 0.07 0.08 0.06 0.07 0.09 0.11 0.12 0.10 0.10 0.10 0.10 0.09 0.10 0.09 0.07 0.05 0.04 0.03 0.03 0.03 0.04 0.04 0.04 0.03 0.04 0.04 0.05 0.06 0.03 0.03 0.06 0.11 0.13 0.11 0.09 0.07 0.05 0.05 0.05 0.05 0.06 0.06
0.04 0.04 0.06 0.06 0.08 0.10 0.12 0.10 0.09 0.12 0.14 0.13 0.10 0.08 0.09 0.07 0.08 0.07 0.05 0.03 0.03 0.04 0.06 0.04 0.04 0.04 0.04 0.03 0.04 0.03 0.02 0.02 0.05 0.07 0.09 0.09 0.08 0.06 0.07 0.07 0.08 0.09 0.09
0.03 0.03 0.05 0.08 0.11 0.10 0.10 0.09 0.09 0.10 0.09 0.10 0.08 0.07 0.08 0.10 0.10 0.10 0.10 0.10 0.08 0.07 0.06 0.05 0.05 0.05 0.04 0.03 0.04 0.02 0.02 0.02 0.03 0.04 0.06 0.07 0.08 0.07 0.08 0.08 0.08 0.09 0.11
0.03 0.03 0.03 0.04 0.06 0.08 0.08 0.09 0.10 0.08 0.08 0.08 0.08 0.06 0.07 0.10 0.11 0.10 0.10 0.10 0.09 0.07 0.06 0.05 0.04 0.03 0.03 0.04 0.03 0.03 0.02 0.02 0.02 0.03 0.04 0.05 0.06 0.07 0.08 0.08 0.08 0.08 0.10
0.03 0.03 0.03 0.04 0.05 0.08 0.07 0.07 0.08 0.08 0.09 0.08 0.07 0.07 0.08 0.08 0.07 0.08 0.06 0.04 0.06 0.06 0.05 0.03 0.02 0.02 0.02 0.03 0.05 0.03 0.02 0.03 0.03 0.02 0.03 0.03 0.03 0.04 0.06 0.07 0.08 0.09 0.10
0.03 0.03 0.03 0.04 0.06 0.07 0.06 0.06 0.08 0.08 0.08 0.07 0.06 0.07 0.08 0.06 0.06 0.07 0.08 0.07 0.06 0.05 0.05 0.03 0.01 0.01 0.01 0.02 0.02 0.03 0.02 0.03 0.04 0.04 0.04 0.04 0.03 0.03 0.04 0.05 0.06 0.06 0.08
0.02 0.03 0.04 0.06 0.06 0.05 0.06 0.06 0.07 0.08 0.08 0.06 0.06 0.05 0.05 0.05 0.05 0.05 0.06 0.07 0.07 0.06 0.04 0.03 0.03 0.01 0.01 0.01 0.02 0.02 0.03 0.02 0.03 0.04 0.04 0.04 0.04 0.04 0.04 0.05 0.06 0.07 0.09
0.03 0.03 0.04 0.06 0.06 0.05 0.06 0.06 0.05 0.06 0.05 0.04 0.03 0.04 0.04 0.04 0.05 0.05 0.04 0.05 0.06 0.06 0.05 0.04 0.03 0.02 0.02 0.01 0.01 0.02 0.02 0.02 0.02 0.02 0.03 0.04 0.05 0.05 0.05 0.05 0.06 0.07 0.07
0.06 0.06 0.05 0.06 0.06 0.05 0.05 0.05 0.04 0.03 0.02 0.02 0.02 0.02 0.03 0.04 0.04 0.04 0.04 0.04 0.05 0.06 0.05 0.04 0.03 0.03 0.03 0.03 0.02 0.02 0.02 0.02 0.02 0.02 0.02 0.03 0.04 0.04 0.05 0.05 0.05 0.06 0.05
0.06 0.06 0.06 0.06 0.06 0.05 0.05 0.05 0.04 0.03 0.02 0.02 0.02 0.03 0.04 0.04 0.05 0.04 0.04 0.04 0.04 0.05 0.06 0.06 0.06 0.07 0.06 0.05 0.04 0.03 0.02 0.01 0.02 0.02 0.03 0.04 0.04 0.04 0.03 0.03 0.03 0.04 0.03
0.05 0.06 0.05 0.05 0.04 0.04 0.03 0.03 0.04 0.03 0.03 0.03 0.03 0.04 0.05 0.07 0.06 0.06 0.05 0.05 0.04 0.04 0.07 0.08 0.07 0.07 0.06 0.05 0.04 0.03 0.03 0.02 0.02 0.02 0.03 0.04 0.03 0.03 0.03 0.03 0.03 0.03 0.02
0.04 0.05 0.04 0.04 0.03 0.02 0.02 0.03 0.03 0.03 0.04 0.03 0.05 0.06 0.05 0.05 0.05 0.06 0.06 0.05 0.05 0.06 0.07 0.07 0.06 0.06 0.05 0.05 0.04 0.03 0.03 0.02 0.02 0.02 0.03 0.03 0.04 0.04 0.04 0.04 0.03 0.03 0.02
0.03 0.03 0.02 0.02 0.01 0.01 0.01 0.02 0.04 0.04 0.04 0.03 0.04 0.03 0.03 0.04 0.05 0.05 0.05 0.05 0.06 0.06 0.07 0.07 0.06 0.06 0.05 0.06 0.05 0.05 0.04 0.04 0.03 0.03 0.03 0.04 0.04 0.04 0.05 0.05 0.04 0.04 0.03
0.01 0.01 0.01 0.01 0.01 0.00 0.01 0.02 0.03 0.03 0.04 0.04 0.04 0.03 0.03 0.03 0.02 0.03 0.03 0.04 0.04 0.05 0.05 0.05 0.05 0.04 0.04 0.05 0.06 0.06 0.06 0.06 0.06 0.05 0.05 0.05 0.05 0.05 0.05 0.05 0.05 0.04 0.03
0.02 0.01 0.01 0.02 0.02 0.02 0.03 0.03 0.04 0.04 0.03 0.03 0.03 0.03 0.02 0.03 0.04 0.04 0.06 0.05 0.05 0.04 0.04 0.04 0.04 0.04 0.04 0.06 0.07 0.06 0.05 0.05 0.05 0.05 0.04 0.03 0.03 0.03 0.03 0.04 0.05 0.04 0.04
0.02 0.02 0.02 0.03 0.03 0.03 0.03 0.04 0.05 0.03 0.03 0.03 0.03 0.02 0.03 0.03 0.04 0.05 0.07 0.07 0.06 0.05 0.04 0.04 0.03 0.04 0.05 0.06 0.07 0.07 0.07 0.07 0.06 0.05 0.05 0.04 0.04 0.04 0.05 0.05 0.06 0.05 0.05
0.02 0.02 0.02 0.03 0.03 0.04 0.05 0.05 0.05 0.03 0.03 0.04 0.04 0.03 0.03 0.03 0.04 0.05 0.05 0.07 0.06 0.06 0.06 0.05 0.05 0.06 0.07 0.08 0.07 0.06 0.07 0.07 0.07 0.06 0.05 0.05 0.05 0.05 0.04 0.04 0.04 0.05 0.05
0.03 0.03 0.03 0.03 0.03 0.04 0.04 0.04 0.04 0.03 0.03 0.03 0.04 0.05 0.06 0.06 0.06 0.05 0.04 0.05 0.05 0.06 0.06 0.06 0.06 0.06 0.06 0.08 0.09 0.09 0.09 0.09 0.09 0.09 0.08 0.07 0.06 0.06 0.06 0.04 0.03 0.03 0.02
MSLP
1017.97 1018.12 1018.19 1018.22 1018.24 1018.29 1018.39 1018.54 1018.71 1018.86 1018.94 1018.91 1018.78 1018.56 1018.32 1018.11 1018.00 1018.04 1018.23 1018.56 1018.96 1019.38 1019.75 1020.03 1020.20 1020.26 1020.24 1020.21 1020.20 1020.25 1020.36 1020.54 1020.75 1020.96 1021.16 1021.31 1021.43 1021.51 1021.58 1021.65 1021.73 1021.83 1021.94
1017.98 1018.12 1018.19 1018.22 1018.25 1018.31 1018.41 1018.56 1018.73 1018.86 1018.92 1018.89 1018.75 1018.52 1018.26 1018.03 1017.87 1017.83 1017.94 1018.17 1018.49 1018.83 1019.16 1019.42 1019.60 1019.71 1019.77 1019.82 1019.89 1019.99 1020.15 1020.35 1020.56 1020.77 1020.94 1021.07 1021.17 1021.23 1021.30 1021.36 1021.45 1021.56 1021.68
1017.95 1018.09 1018.16 1018.21 1018.25 1018.32 1018.44 1018.59 1018.75 1018.88 1018.94 1018.90 1018.76 1018.54 1018.26 1017.99 1017.78 1017.66 1017.66 1017.77 1017.97 1018.22 1018.47 1018.70 1018.89 1019.04 1019.17 1019.29 1019.44 1019.61 1019.81 1020.03 1020.23 1020.42 1020.56 1020.66 1020.74 1020.79 1020.86 1020.94 1021.05 1021.19 1021.34
1017.88 1018.01 1018.10 1018.16 1018.23 1018.32 1018.45 1018.60 1018.76 1018.89 1018.96 1018.93 1018.80 1018.58 1018.30 1018.00 1017.73 1017.52 1017.41 1017.39 1017.46 1017.58 1017.75 1017.92 1018.10 1018.27 1018.45 1018.64 1018.85 1019.07 1019.30 1019.52 1019.72 1019.87 1019.98 1020.06 1020.11 1020.16 1020.24 1020.35 1020.50 1020.68 1020.88
1017.75 1017.89 1017.99 1018.07 1018.16 1018.27 1018.42 1018.58 1018.74 1018.87 1018.95 1018.93 1018.82 1018.62 1018.34 1018.03 1017.71 1017.43 1017.20 1017.06 1016.99 1016.99 1017.04 1017.15 1017.29 1017.47 1017.67 1017.91 1018.15 1018.41 1018.65 1018.86 1019.03 1019.15 1019.22 1019.27 1019.31 1019.37 1019.46 1019.61 1019.81 1020.05 1020.30
1017.58 1017.71 1017.83 1017.93 1018.05 1018.18 1018.34 1018.51 1018.67 1018.81 1018.89 1018.90 1018.81 1018.63 1018.37 1018.05 1017.70 1017.36 1017.06 1016.80 1016.61 1016.49 1016.44 1016.47 1016.56 1016.72 1016.93 1017.17 1017.43 1017.69 1017.92 1018.10 1018.23 1018.31 1018.35 1018.37 1018.40 1018.46 1018.58 1018.77 1019.01 1019.29 1019.59
1017.36 1017.49 1017.62 1017.74 1017.88 1018.04 1018.21 1018.39 1018.55 1018.69 1018.79 1018.80 1018.74 1018.59 1018.35 1018.05 1017.71 1017.33 1016.97 1016.63 1016.35 1016.14 1016.00 1015.96 1016.00 1016.12 1016.31 1016.53 1016.78 1017.02 1017.22 1017.36 1017.45 1017.48 1017.48 1017.47 1017.48 1017.55 1017.67 1017.87 1018.14 1018.45 1018.77
1017.10 1017.22 1017.35 1017.50 1017.67 1017.84 1018.03 1018.21 1018.38 1018.52 1018.62 1018.65 1018.61 1018.50 1018.30 1018.03 1017.70 1017.33 1016.95 1016.58 1016.24 1015.96 1015.76 1015.66 1015.65 1015.73 1015.88 1016.08 1016.29 1016.49 1016.65 1016.75 1016.79 1016.77 1016.73 1016.68 1016.67 1016.71 1016.82 1017.01 1017.26 1017.55 1017.85
1016.79 1016.90 1017.03 1017.19 1017.38 1017.58 1017.78 1017.97 1018.14 1018.28 1018.38 1018.43 1018.42 1018.34 1018.19 1017.97 1017.68 1017.35 1016.98 1016.61 1016.26 1015.96 1015.72 1015.58 1015.53 1015.57 1015.68 1015.84 1016.01 1016.16 1016.28 1016.33 1016.32 1016.27 1016.18 1016.10 1016.04 1016.03 1016.10 1016.23 1016.41 1016.64 1016.88
1016.40 1016.49 1016.63 1016.80 1017.00 1017.22 1017.44 1017.64 1017.82 1017.97 1018.08 1018.15 1018.16 1018.12 1018.02 1017.86 1017.64 1017.36 1017.04 1016.71 1016.38 1016.08 1015.84 1015.67 1015.59 1015.60 1015.67 1015.79 1015.91 1016.03 1016.10 1016.11 1016.07 1015.98 1015.85 1015.72 1015.62 1015.55 1015.53 1015.57 1015.65 1015.76 1015.90
1015.93 1015.99 1016.11 1016.29 1016.51 1016.75 1016.99 1017.21 1017.41 1017.58 1017.71 1017.79 1017.84 1017.85 1017.80 1017.71 1017.55 1017.35 1017.10 1016.82 1016.53 1016.26 1016.03 1015.86 1015.76 1015.74 1015.77 1015.84 1015.93 1016.00 1016.04 1016.03 1015.96 1015.85 1015.70 1015.53 1015.37 1015.23 1015.11 1015.03 1014.98 1014.96 1014.96
1015.38 1015.40 1015.50 1015.68 1015.91 1016.16 1016.43 1016.68 1016.91 1017.11 1017.26 1017.39 1017.47 1017.53 1017.54 1017.51 1017.43 1017.30 1017.12 1016.90 1016.67 1016.43 1016.22 1016.05 1015.93 1015.87 1015.87 1015.90 1015.95 1015.99 1016.00 1015.98 1015.91 1015.79 1015.63 1015.44 1015.23 1015.02 1014.82 1014.62 1014.43 1014.26 1014.12
1014.77 1014.75 1014.82 1014.98 1015.21 1015.49 1015.79 1016.08 1016.35 1016.58 1016.78 1016.95 1017.08 1017.18 1017.25 1017.28 1017.27 1017.20 1017.09 1016.93 1016.74 1016.54 1016.34 1016.16 1016.02 1015.93 1015.88 1015.87 1015.88 1015.89 1015.89 1015.86 1015.80 1015.69 1015.54 1015.35 1015.12 1014.87 1014.59 1014.29 1013.99 1013.70 1013.43
1014.18 1014.10 1014.13 1014.27 1014.50 1014.80 1015.12 1015.46 1015.78 1016.06 1016.31 1016.52 1016.71 1016.85 1016.97 1017.05 1017.08 1017.07 1017.01 1016.90 1016.74 1016.56 1016.36 1016.17 1016.00 1015.86 1015.76 1015.70 1015.67 1015.65 1015.64 1015.62 1015.57 1015.49 1015.36 1015.19 1014.97 1014.69 1014.38 1014.02 1013.65 1013.27 1012.91
1013.68 1013.54 1013.53 1013.65 1013.87 1014.18 1014.53 1014.91 1015.27 1015.61 1015.91 1016.17 1016.39 1016.57 1016.72 1016.84 1016.91 1016.93 1016.90 1016.81 1016.68 1016.50 1016.30 1016.08 1015.87 1015.69 1015.53 1015.42 1015.34 1015.29 1015.26 1015.24 1015.21 1015.16 1015.07 1014.93 1014.73 1014.48 1014.16 1013.79 1013.39 1012.98 1012.58
1013.35 1013.16 1013.11 1013.20 1013.41 1013.73 1014.11 1014.52 1014.92 1015.30 1015.64 1015.93 1016.17 1016.38 1016.54 1016.67 1016.75 1016.79 1016.78 1016.70 1016.58 1016.40 1016.18 1015.95 1015.70 1015.47 1015.26 1015.08 1014.95 1014.87 1014.81 1014.78 1014.76 1014.73 1014.67 1014.58 1014.43 1014.21 1013.93 1013.59 1013.20 1012.80 1012.40
1013.24 1013.02 1012.94 1013.01 1013.21 1013.53 1013.92 1014.35 1014.77 1015.17 1015.52 1015.82 1016.07 1016.27 1016.43 1016.54 1016.62 1016.66 1016.65 1016.58 1016.47 1016.29 1016.07 1015.82 1015.55 1015.28 1015.02 1014.80 1014.62 1014.48 1014.39 1014.34 1014.31 1014.28 1014.25 1014.18 1014.07 1013.90 1013.67 1013.39 1013.06 1012.70 1012.34
1013.34 1013.11 1013.02 1013.07 1013.27 1013.58 1013.97 1014.40 1014.82 1015.21 1015.55 1015.82 1016.04 1016.21 1016.34 1016.43 1016.49 1016.52 1016.51 1016.45 1016.35 1016.19 1015.99 1015.75 1015.47 1015.18 1014.90 1014.64 1014.41 1014.23 1014.09 1013.99 1013.93 1013.89 1013.85 1013.79 1013.71 1013.58 1013.41 1013.19 1012.92 1012.63 1012.32
1013.58 1013.37 1013.29 1013.35 1013.54 1013.84 1014.21 1014.61 1015.00 1015.35 1015.64 1015.87 1016.03 1016.14 1016.22 1016.27 1016.31 1016.32 1016.32 1016.28 1016.21 1016.09 1015.93 1015.71 1015.46 1015.18 1014.89 1014.61 1014.35 1014.13 1013.94 1013.80 1013.69 1013.60 1013.53 1013.46 1013.38 1013.27 1013.13 1012.96 1012.76 1012.53 1012.28
1013.87 1013.70 1013.64 1013.72 1013.91 1014.19 1014.54 1014.89 1015.22 1015.50 1015.72 1015.86 1015.95 1015.99 1016.01 1016.01 1016.02 1016.03 1016.04 1016.04 1016.01 1015.95 1015.84 1015.68 1015.48 1015.23 1014.97 1014.69 1014.42 1014.17 1013.94 1013.74 1013.57 1013.43 1013.31 1013.20 1013.09 1012.97 1012.84 1012.71 1012.55 1012.38 1012.19
1014.09 1013.98 1013.97 1014.07 1014.26 1014.52 1014.82 1015.11 1015.36 1015.56 1015.68 1015.73 1015.73 1015.70 1015.65 1015.61 1015.60 1015.60 1015.63 1015.67 1015.70 1015.70 1015.66 1015.58 1015.44 1015.26 1015.03 1014.78 1014.52 1014.26 1014.00 1013.76 1013.54 1013.34 1013.16 1012.99 1012.84 1012.70 1012.56 1012.43 1012.31 1012.17 1012.03
1014.18 1014.13 1014.16 1014.28 1014.47 1014.70 1014.95 1015.17 1015.34 1015.43 1015.46 1015.42 1015.34 1015.23 1015.13 1015.06 1015.03 1015.04 1015.09 1015.16 1015.24 1015.31 1015.34 1015.33 1015.27 1015.15 1014.98 1014.78 1014.55 1014.30 1014.04 1013.78 1013.53 1013.29 1013.06 1012.84 1012.64 1012.46 1012.30 1012.17 1012.05 1011.94 1011.83
1014.10 1014.11 1014.19 1014.32 1014.50 1014.69 1014.88 1015.02 1015.11 1015.12 1015.06 1014.94 1014.79 1014.63 1014.49 1014.39 1014.35 1014.37 1014.44 1014.54 1014.66 1014.77 1014.85 1014.90 1014.90 1014.84 1014.74 1014.59 1014.41 1014.20 1013.97 1013.72 1013.47 1013.21 1012.96 1012.71 1012.48 1012.27 1012.10 1011.95 1011.83 1011.74 1011.66
1013.89 1013.94 1014.04 1014.18 1014.34 1014.50 1014.63 1014.71 1014.71 1014.65 1014.52 1014.34 1014.15 1013.96 1013.80 1013.69 1013.65 1013.67 1013.74 1013.86 1013.98 1014.11 1014.22 1014.30 1014.33 1014.32 1014.27 1014.18 1014.06 1013.91 1013.73 1013.53 1013.32 1013.08 1012.85 1012.60 1012.37 1012.16 1011.97 1011.82 1011.71 1011.63 1011.57
1013.63 1013.71 1013.82 1013.96 1014.09 1014.21 1014.29 1014.30 1014.25 1014.13 1013.96 1013.75 1013.54 1013.34 1013.17 1013.07 1013.02 1013.03 1013.10 1013.19 1013.31 1013.42 1013.51 1013.58 1013.62 1013.63 1013.61 1013.57 1013.51 1013.43 1013.34 1013.22 1013.07 1012.91 1012.72 1012.52 1012.32 1012.12 1011.95 1011.81 1011.71 1011.65 1011.62
1013.41 1013.51 1013.63 1013.75 1013.86 1013.94 1013.97 1013.94 1013.84 1013.69 1013.49 1013.27 1013.05 1012.86 1012.70 1012.60 1012.55 1012.55 1012.58 1012.64 1012.71 1012.77 1012.81 1012.84 1012.86 1012.86 1012.86 1012.86 1012.85 1012.85 1012.84 1012.81 1012.76 1012.69 1012.58 1012.45 1012.31 1012.16 1012.02 1011.91 1011.83 1011.79 1011.79
Thickness
5749 5749 5748 5746 5748 5748 5747 5745 5746 5746 5745 5745 5747 5748 5748 5747 5748 5747 5744 5740 5737 5736 5734 5733 5732 5730 5728 5727 5725 5724 5723 5721 5720 5718 5717 5716 5714 5713 5712 5711 5710 5709 5708
5748 5748 5748 5747 5749 5748 5748 5747 5747 5746 5746 5747 5747 5747 5748 5748 5747 5746 5746 5742 5739 5737 5736 5734 5733 5731 5729 5728 5726 5725 5723 5721 5720 5718 5717 5716 5714 5713 5712 5710 5709 5708 5707
5748 5748 5749 5749 5749 5748 5746 5746 5746 5746 5746 5747 5747 5748 5748 5747 5747 5746 5746 5746 5744 5740 5738 5736 5734 5732 5731 5729 5727 5725 5724 5722 5720 5719 5717 5716 5714 5713 5712 5710 5709 5708 5707
5748 5748 5749 5750 5748 5748 5748 5747 5747 5747 5747 5747 5747 5748 5748 5747 5746 5746 5746 5746 5746 5745 5741 5738 5736 5734 5732 5730 5729 5727 5725 5723 5721 5719 5718 5716 5714 5713 5712 5710 5709 5708 5706
5749 5749 5749 5748 5748 5749 5749 5750 5749 5748 5746 5745 5746 5747 5748 5748 5747 5747 5747 5747 5746 5744 5744 5740 5737 5735 5733 5732 5730 5728 5726 5724 5722 5720 5718 5717 5715 5714 5712 5710 5709 5708 5706
5750 5750 5749 5748 5749 5749 5748 5748 5746 5746 5746 5745 5747 5747 5747 5748 5748 5748 5748 5748 5746 5745 5744 5743 5741 5738 5735 5733 5731 5729 5727 5725 5723 5721 5719 5718 5716 5715 5713 5711 5710 5708 5706
5751 5750 5751 5749 5749 5748 5747 5748 5747 5746 5746 5746 5744 5743 5746 5749 5748 5747 5747 5747 5746 5745 5744 5743 5742 5741 5738 5734 5732 5730 5728 5726 5724 5722 5720 5719 5717 5715 5714 5712 5710 5708 5706
5752 5752 5750 5750 5749 5747 5746 5746 5745 5745 5745 5746 5742 5739 5738 5742 5744 5747 5746 5745 5744 5745 5744 5743 5741 5739 5738 5737 5735 5731 5729 5727 5725 5723 5721 5719 5718 5716 5714 5712 5711 5709 5707
5753 5751 5750 5750 5748 5748 5746 5745 5745 5743 5742 5744 5745 5741 5736 5735 5738 5742 5743 5742 5741 5741 5741 5740 5739 5738 5737 5736 5734 5731 5729 5727 5725 5723 5721 5719 5718 5716 5714 5712 5710 5709 5706
5753 5752 5750 5748 5747 5747 5745 5745 5746 5743 5741 5740 5742 5742 5741 5741 5734 5733 5737 5739 5739 5738 5738 5738 5738 5736 5734 5733 5731 5729 5727 5725 5723 5721 5720 5718 5717 5715 5713 5711 5710 5708 5706
5753 5751 5750 5748 5746 5746 5745 5744 5743 5742 5741 5740 5740 5740 5739 5739 5737 5732 5730 5732 5734 5736 5736 5734 5734 5733 5731 5730 5729 5727 5724 5722 5720 5719 5717 5716 5714 5713 5712 5710 5708 5706 5704
5754 5752 5750 5748 5747 5746 5744 5743 5742 5741 5741 5739 5740 5740 5738 5736 5735 5734 5730 5729 5729 5732 5733 5732 5731 5730 5728 5727 5725 5723 5720 5718 5717 5715 5714 5713 5711 5710 5708 5707 5705 5704 5702
5755 5752 5751 5748 5748 5746 5745 5743 5741 5741 5740 5738 5737 5738 5738 5738 5737 5735 5731 5729 5727 5728 5729 5729 5728 5727 5725 5723 5721 5718 5716 5715 5713 5712 5710 5709 5708 5706 5705 5704 5702 5701 5699
5756 5753 5750 5748 5747 5746 5745 5743 5742 5740 5738 5737 5737 5736 5736 5737 5736 5734 5731 5727 5723 5724 5724 5724 5724 5723 5721 5718 5716 5714 5713 5710 5709 5707 5706 5705 5703 5702 5700 5699 5697 5696 5695
5756 5753 5750 5748 5747 5745 5744 5742 5741 5739 5737 5736 5735 5734 5733 5734 5733 5733 5731 5728 5722 5718 5718 5719 5719 5719 5716 5714 5711 5709 5708 5705 5704 5702 5701 5699 5698 5697 5695 5694 5692 5691 5690
5755 5752 5750 5748 5746 5744 5742 5740 5739 5737 5735 5733 5732 5730 5729 5730 5730 5729 5728 5726 5724 5719 5716 5717 5715 5714 5711 5709 5706 5704 5702 5699 5698 5696 5695 5693 5692 5691 5689 5688 5687 5685 5684
5754 5751 5749 5746 5744 5742 5740 5738 5736 5734 5732 5731 5729 5728 5726 5725 5725 5726 5724 5722 5720 5718 5713 5712 5711 5709 5705 5703 5700 5698 5697 5695 5693 5690 5688 5686 5685 5684 5683 5681 5680 5679 5678
5753 5750 5747 5744 5742 5740 5738 5735 5733 5732 5729 5727 5726 5725 5723 5723 5720 5720 5719 5718 5716 5715 5711 5706 5704 5702 5699 5697 5694 5693 5692 5690 5688 5684 5682 5679 5678 5676 5675 5674 5673 5671 5670
5750 5748 5745 5742 5739 5737 5735 5732 5730 5728 5727 5725 5723 5721 5719 5718 5715 5716 5714 5713 5712 5711 5708 5703 5700 5697 5694 5691 5688 5687 5685 5683 5681 5678 5675 5673 5671 5669 5667 5666 5665 5664 5662
5748 5745 5742 5739 5736 5734 5732 5729 5726 5724 5723 5721 5719 5717 5715 5713 5711 5709 5708 5706 5705 5703 5701 5698 5695 5692 5688 5685 5682 5680 5678 5677 5675 5673 5670 5667 5664 5662 5661 5659 5658 5656 5654
5746 5742 5738 5735 5733 5731 5728 5725 5722 5720 5718 5717 5715 5712 5710 5707 5704 5702 5702 5700 5698 5697 5696 5693 5689 5687 5683 5679 5677 5676 5673 5670 5668 5667 5664 5662 5660 5658 5655 5652 5650 5647 5646
5740 5737 5734 5732 5729 5727 5721 5718 5716 5715 5713 5711 5709 5707 5705 5701 5698 5694 5692 5691 5690 5689 5688 5687 5685 5681 5677 5675 5672 5670 5667 5664 5661 5659 5657 5655 5654 5652 5649 5646 5642 5640 5637
5735 5731 5729 5727 5723 5719 5714 5711 5709 5710 5708 5705 5703 5701 5700 5698 5693 5691 5687 5684 5683 5680 5679 5679 5678 5675 5672 5669 5665 5663 5660 5658 5656 5654 5650 5648 5647 5644 5641 5638 5634 5631 5629
5730 5726 5723 5721 5717 5713 5708 5706 5703 5704 5703 5701 5698 5695 5693 5690 5688 5684 5682 5680 5678 5675 5672 5672 5670 5667 5665 5662 5658 5656 5653 5650 5647 5645 5642 5641 5639 5637 5635 5631 5626 5624 5622
5725 5722 5719 5716 5712 5707 5702 5700 5697 5699 5697 5695 5693 5689 5687 5684 5678 5675 5675 5673 5670 5668 5664 5661 5659 5657 5655 5652 5649 5648 5645 5643 5640 5638 5635 5633 5632 5629 5627 5625 5621 5617 5614
5721 5718 5714 5711 5707 5703 5697 5694 5692 5695 5692 5689 5686 5682 5676 5674 5670 5667 5668 5666 5662 5660 5658 5656 5652 5649 5647 5644 5640 5639 5638 5635 5633 5631 5628 5624 5624 5621 5620 5618 5615 5611 5608